Hourly Data Report for October 05, 2017

All times are specified in Local Standard Time (LST). Add 1 hour to adjust for Daylight Saving Time where and when it is observed.

TIMMINS A
ONTARIO

48°34'14.000" N
81°22'36.000" W
294.70 m
6078286
71739
YTS

Download Data

Hourly Data (October 2017)
Hourly Data Report for October 5, 2017
Temp Definition
°C
Dew Point Temp Definition
°C
Rel Hum Definition
%
Wind Dir Definition
10's deg

Wind Spd Definition
km/h
Visibility Definition
km
Stn Press Definition
kPa
Hmdx Definition


Wind Chill Definition


Weather Definition


TIME
00:00 Legend Double Dagger 8.6 5.5 81 24 13 24.1 98.01     LegendNANA
01:00 Legend Double Dagger 8.2 5.5 83 23 11 24.1 97.97     Mostly Cloudy
02:00 Legend Double Dagger 7.6 5.7 87 23 12 24.1 97.93     LegendNANA
03:00 Legend Double Dagger 8.6 6.0 84 23 12 24.1 97.89     LegendNANA
04:00 Legend Double Dagger 9.1 5.9 80 24 13 24.1 97.88     Cloudy
05:00 Legend Double Dagger 9.0 6.1 82 24 10 24.1 97.88     LegendNANA
06:00 Legend Double Dagger 8.8 6.0 83 24 10 24.1 97.87     LegendNANA
07:00 Legend Double Dagger 8.9 5.3 78 24 9 24.1 97.88     Cloudy
08:00 Legend Double Dagger 9.4 4.5 71 26 14 24.1 97.90     LegendNANA
09:00 Legend Double Dagger 9.6 5.1 73 27 11 24.1 97.89     Rain Showers
10:00 Legend Double Dagger 10.5 5.4 70 25 12 24.1 97.85     Cloudy
11:00 Legend Double Dagger 11.0 5.4 68 26 13 24.1 97.80     LegendNANA
12:00 Legend Double Dagger 11.6 4.5 62 29 20 24.1 97.75     LegendNANA
13:00 Legend Double Dagger 10.0 7.9 87 30 18 19.3 97.75     Rain Showers
14:00 Legend Double Dagger 11.2 7.3 77 25 9 24.1 97.72     LegendNANA
15:00 Legend Double Dagger 11.8 4.2 60 27 14 24.1 97.73     LegendNANA
16:00 Legend Double Dagger 10.3 5.6 72 31 12 24.1 97.78     Mostly Cloudy
17:00 Legend Double Dagger 10.4 4.0 64 31 13 24.1 97.82     LegendNANA
18:00 Legend Double Dagger 8.2 4.3 76 27 6 24.1 97.87     LegendNANA
19:00 Legend Double Dagger 5.0 4.1 94 36 3 24.1 97.92     Mainly Clear
20:00 Legend Double Dagger 3.9 3.2 95 23 4 24.1 97.93     LegendNANA
21:00 Legend Double Dagger 4.6 3.6 93 23 8 24.1 97.95     LegendNANA
22:00 Legend Double Dagger 4.4 3.6 95 23 3 24.1 97.96     Mostly Cloudy
23:00 Legend Double Dagger 5.2 4.3 94 20 4 24.1 97.97     LegendNANA

Notes on Data Quality.

Legend

  • E = Estimated
  • M = Missing
  • NA = Not Available
  • ‡ = Partner data that is not subject to review by the National Climate Archives
Date modified: